Location: Newark
(37.0133°S, 81.3511°E)
Time: 04:57:57
(UTC+00:00)

N. Korean satellite - Visible Passes

Search period start: 26 January 2020 00:00
Search period end: 05 February 2020 00:00
Orbit: 454 x 507 km, 97.2° (Epoch: 25 January)

Date Brightness Start Highest point End Pass type
(mag) Time Alt. Az. Time Alt. Az. Time Alt. Az.
26 Jan 9.3 22:58:47 10° NE 23:01:56 26° ESE 23:05:06 10° SSE visible
27 Jan 10.1 22:34:51 10° E 22:36:39 13° ESE 22:38:27 10° SE visible
29 Jan 8.2 23:15:09 10° NE 23:18:43 42° ESE 23:22:17 10° S visible
30 Jan 9.7 22:50:32 10° ENE 22:53:22 21° ESE 22:56:13 10° SSE visible
31 Jan 10.5 22:27:33 10° ESE 22:28:07 10° ESE 22:28:40 10° ESE visible
02 Feb 8.7 23:06:44 10° NE 23:10:07 33° ESE 23:13:30 10° S visible
03 Feb 9.9 22:42:24 10° ENE 22:44:48 16° ESE 22:47:11 10° SSE visible
